Time,TemperatureF,DewpointF,PressureIn,WindDirection,WindDirectionDegrees,WindSpeedMPH,WindSpeedGustMPH,Humidity,HourlyPrecipIn,Conditions,Clouds,dailyrainin,SoftwareType,DateUTC
2013-04-13 00:02:00,60.0,38.0,29.80,NNW,343,2.0,6.0,44,0.00,,,0.00,weatherlink.com 1.10,2013-04-13 04:02:00,
2013-04-13 00:17:00,59.2,38.0,29.80,North,360,1.0,4.0,45,0.00,,,0.00,weatherlink.com 1.10,2013-04-13 04:17:00,
2013-04-13 00:32:00,58.5,38.0,29.80,NW,319,0.0,2.0,46,0.00,,,0.00,weatherlink.com 1.10,2013-04-13 04:32:00,
2013-04-13 00:48:00,57.1,37.0,29.81,East,83,1.0,2.0,48,0.00,,,0.00,weatherlink.com 1.10,2013-04-13 04:48:00,
2013-04-13 01:03:00,55.4,39.0,29.81,South,174,1.0,2.0,55,0.00,,,0.00,weatherlink.com 1.10,2013-04-13 05:03:00,
2013-04-13 01:18:00,54.0,40.0,29.82,South,174,1.0,2.0,59,0.00,,,0.00,weatherlink.com 1.10,2013-04-13 05:18:00,
2013-04-13 01:33:00,53.0,39.0,29.82,South,174,0.0,2.0,60,0.00,,,0.00,weatherlink.com 1.10,2013-04-13 05:33:00,
2013-04-13 01:48:00,52.0,40.0,29.82,South,174,1.0,2.0,64,0.00,,,0.00,weatherlink.com 1.10,2013-04-13 05:48:00,
2013-04-13 02:03:00,51.2,41.0,29.83,South,174,0.0,2.0,67,0.00,,,0.00,weatherlink.com 1.10,2013-04-13 06:03:00,
2013-04-13 02:18:00,50.5,39.0,29.83,South,174,0.0,2.0,66,0.00,,,0.00,weatherlink.com 1.10,2013-04-13 06:18:00,
2013-04-13 02:33:00,49.9,40.0,29.83,South,174,0.0,1.0,68,0.00,,,0.00,weatherlink.com 1.10,2013-04-13 06:33:00,
2013-04-13 03:03:00,48.8,41.0,29.83,South,174,1.0,1.0,75,0.00,,,0.00,weatherlink.com 1.10,2013-04-13 07:03:00,
2013-04-13 03:18:00,49.1,41.0,29.84,West,276,0.0,3.0,73,0.00,,,0.00,weatherlink.com 1.10,2013-04-13 07:18:00,
2013-04-13 03:33:00,50.7,38.0,29.84,WNW,292,0.0,3.0,62,0.00,,,0.00,weatherlink.com 1.10,2013-04-13 07:33:00,
2013-04-13 03:48:00,50.6,40.0,29.84,WNW,292,0.0,1.0,67,0.00,,,0.00,weatherlink.com 1.10,2013-04-13 07:48:00,
2013-04-13 04:03:00,49.4,40.0,29.84,South,190,1.0,2.0,70,0.00,,,0.00,weatherlink.com 1.10,2013-04-13 08:03:00,
2013-04-13 04:18:00,48.5,40.0,29.85,South,179,0.0,1.0,73,0.00,,,0.00,weatherlink.com 1.10,2013-04-13 08:18:00,
2013-04-13 04:33:00,47.9,40.0,29.85,South,179,0.0,1.0,75,0.00,,,0.00,weatherlink.com 1.10,2013-04-13 08:33:00,
2013-04-13 04:48:00,47.0,40.0,29.85,South,179,0.0,1.0,78,0.00,,,0.00,weatherlink.com 1.10,2013-04-13 08:48:00,
2013-04-13 05:03:00,46.4,41.0,29.85,South,179,1.0,2.0,81,0.00,,,0.00,weatherlink.com 1.10,2013-04-13 09:03:00,
2013-04-13 05:18:00,45.8,40.0,29.85,South,179,1.0,1.0,80,0.00,,,0.00,weatherlink.com 1.10,2013-04-13 09:18:00,
2013-04-13 05:33:00,45.5,41.0,29.86,SSE,154,1.0,2.0,84,0.00,,,0.00,weatherlink.com 1.10,2013-04-13 09:33:00,
2013-04-13 05:49:00,45.3,40.0,29.86,SSE,154,0.0,1.0,83,0.00,,,0.00,weatherlink.com 1.10,2013-04-13 09:49:00,
2013-04-13 06:04:00,44.6,40.0,29.87,SSE,154,0.0,0.0,84,0.00,,,0.00,weatherlink.com 1.10,2013-04-13 10:04:00,
2013-04-13 06:19:00,44.0,39.0,29.88,SSE,154,0.0,1.0,83,0.00,,,0.00,weatherlink.com 1.10,2013-04-13 10:19:00,
2013-04-13 06:34:00,43.6,39.0,29.88,SSE,154,1.0,1.0,85,0.00,,,0.00,weatherlink.com 1.10,2013-04-13 10:34:00,
2013-04-13 06:49:00,43.3,39.0,29.89,East,88,2.0,2.0,85,0.00,,,0.00,weatherlink.com 1.10,2013-04-13 10:49:00,
2013-04-13 07:04:00,43.1,39.0,29.90,ESE,102,0.0,1.0,86,0.00,,,0.00,weatherlink.com 1.10,2013-04-13 11:04:00,
2013-04-13 07:19:00,43.1,40.0,29.90,ESE,102,0.0,1.0,89,0.00,,,0.00,weatherlink.com 1.10,2013-04-13 11:19:00,
2013-04-13 07:34:00,43.4,41.0,29.91,ESE,102,1.0,2.0,90,0.00,,,0.00,weatherlink.com 1.10,2013-04-13 11:34:00,
2013-04-13 07:49:00,43.9,42.0,29.92,ESE,102,0.0,1.0,91,0.00,,,0.00,weatherlink.com 1.10,2013-04-13 11:49:00,
2013-04-13 08:04:00,44.7,42.0,29.93,ESE,102,0.0,1.0,91,0.00,,,0.00,weatherlink.com 1.10,2013-04-13 12:04:00,
2013-04-13 08:19:00,45.8,42.0,29.93,ESE,102,0.0,0.0,87,0.00,,,0.00,weatherlink.com 1.10,2013-04-13 12:19:00,
2013-04-13 08:34:00,47.6,44.0,29.93,ESE,102,0.0,1.0,87,0.00,,,0.00,weatherlink.com 1.10,2013-04-13 12:34:00,
2013-04-13 09:04:00,51.4,43.0,29.95,SSW,205,1.0,2.0,72,0.00,,,0.00,weatherlink.com 1.10,2013-04-13 13:04:00,
2013-04-13 09:34:00,56.7,40.0,29.95,NE,49,2.0,3.0,53,0.00,,,0.00,weatherlink.com 1.10,2013-04-13 13:34:00,
2013-04-13 09:49:00,58.2,41.0,29.96,WSW,252,1.0,3.0,53,0.00,,,0.00,weatherlink.com 1.10,2013-04-13 13:49:00,
2013-04-13 10:04:00,60.0,42.0,29.96,SSW,195,1.0,3.0,52,0.00,,,0.00,weatherlink.com 1.10,2013-04-13 14:04:00,
2013-04-13 10:19:00,61.5,41.0,29.96,West,267,2.0,4.0,48,0.00,,,0.00,weatherlink.com 1.10,2013-04-13 14:19:00,
2013-04-13 10:34:00,62.9,42.0,29.96,SSW,209,1.0,6.0,46,0.00,,,0.00,weatherlink.com 1.10,2013-04-13 14:34:00,
2013-04-13 10:49:00,63.8,42.0,29.97,West,269,1.0,9.0,45,0.00,,,0.00,weatherlink.com 1.10,2013-04-13 14:49:00,
2013-04-13 11:04:00,64.3,42.0,29.98,SSW,196,0.0,8.0,44,0.00,,,0.00,weatherlink.com 1.10,2013-04-13 15:04:00,
2013-04-13 11:19:00,65.1,41.0,29.98,WSW,254,1.0,5.0,41,0.00,,,0.00,weatherlink.com 1.10,2013-04-13 15:19:00,
2013-04-13 11:34:00,66.1,40.0,29.97,ENE,63,0.0,4.0,39,0.00,,,0.00,weatherlink.com 1.10,2013-04-13 15:34:00,
2013-04-13 12:04:00,67.0,40.0,29.97,North,355,2.0,7.0,38,0.00,,,0.00,weatherlink.com 1.10,2013-04-13 16:04:00,
2013-04-13 12:20:00,67.3,41.0,29.97,North,355,3.0,7.0,39,0.00,,,0.00,weatherlink.com 1.10,2013-04-13 16:20:00,
2013-04-13 12:35:00,67.8,43.0,29.96,North,5,0.0,8.0,40,0.00,,,0.00,weatherlink.com 1.10,2013-04-13 16:35:00,
2013-04-13 12:50:00,69.7,43.0,29.96,WNW,284,3.0,4.0,38,0.00,,,0.00,weatherlink.com 1.10,2013-04-13 16:50:00,
2013-04-13 13:05:00,70.3,43.0,29.96,WNW,299,5.0,6.0,38,0.00,,,0.00,weatherlink.com 1.10,2013-04-13 17:05:00,
2013-04-13 13:20:00,69.4,43.0,29.95,SW,225,4.0,6.0,38,0.00,,,0.00,weatherlink.com 1.10,2013-04-13 17:20:00,
2013-04-13 13:35:00,70.1,41.0,29.95,WSW,244,2.0,7.0,35,0.00,,,0.00,weatherlink.com 1.10,2013-04-13 17:35:00,
2013-04-13 14:05:00,72.2,41.0,29.94,ENE,59,2.0,9.0,33,0.00,,,0.00,weatherlink.com 1.10,2013-04-13 18:05:00,
2013-04-13 14:20:00,74.1,42.0,29.93,West,269,2.0,6.0,32,0.00,,,0.00,weatherlink.com 1.10,2013-04-13 18:20:00,
2013-04-13 14:35:00,74.9,41.0,29.93,West,271,2.0,6.0,29,0.00,,,0.00,weatherlink.com 1.10,2013-04-13 18:35:00,
2013-04-13 14:50:00,74.3,39.0,29.92,NW,316,1.0,8.0,28,0.00,,,0.00,weatherlink.com 1.10,2013-04-13 18:50:00,
2013-04-13 15:05:00,74.0,37.0,29.92,West,265,3.0,9.0,26,0.00,,,0.00,weatherlink.com 1.10,2013-04-13 19:05:00,
2013-04-13 15:20:00,74.3,38.0,29.91,West,265,4.0,5.0,27,0.00,,,0.00,weatherlink.com 1.10,2013-04-13 19:20:00,
2013-04-13 15:35:00,74.4,36.0,29.90,WNW,288,2.0,7.0,25,0.00,,,0.00,weatherlink.com 1.10,2013-04-13 19:35:00,
2013-04-13 15:50:00,75.1,39.0,29.89,NNW,330,6.0,9.0,27,0.00,,,0.00,weatherlink.com 1.10,2013-04-13 19:50:00,
2013-04-13 16:05:00,75.8,38.0,29.89,West,261,3.0,6.0,26,0.00,,,0.00,weatherlink.com 1.10,2013-04-13 20:05:00,
2013-04-13 16:20:00,76.2,38.0,29.88,SW,224,1.0,6.0,25,0.00,,,0.00,weatherlink.com 1.10,2013-04-13 20:20:00,
2013-04-13 16:35:00,76.6,35.0,29.88,NNW,340,5.0,8.0,22,0.00,,,0.00,weatherlink.com 1.10,2013-04-13 20:35:00,
2013-04-13 16:50:00,76.5,36.0,29.88,West,275,3.0,8.0,23,0.00,,,0.00,weatherlink.com 1.10,2013-04-13 20:50:00,
2013-04-13 17:06:00,77.4,36.0,29.88,NNE,21,4.0,7.0,22,0.00,,,0.00,weatherlink.com 1.10,2013-04-13 21:06:00,
2013-04-13 17:20:00,77.2,35.0,29.88,NNW,336,3.0,8.0,22,0.00,,,0.00,weatherlink.com 1.10,2013-04-13 21:20:00,
2013-04-13 17:35:00,77.5,36.0,29.88,SW,229,2.0,4.0,22,0.00,,,0.00,weatherlink.com 1.10,2013-04-13 21:35:00,
2013-04-13 17:50:00,78.3,33.0,29.88,NE,42,1.0,4.0,19,0.00,,,0.00,weatherlink.com 1.10,2013-04-13 21:50:00,
2013-04-13 18:05:00,78.0,36.0,29.88,North,5,1.0,8.0,22,0.00,,,0.00,weatherlink.com 1.10,2013-04-13 22:05:00,
2013-04-13 18:20:00,77.5,35.0,29.89,NW,309,1.0,7.0,21,0.00,,,0.00,weatherlink.com 1.10,2013-04-13 22:20:00,
2013-04-13 18:35:00,77.9,34.0,29.89,NE,37,1.0,7.0,20,0.00,,,0.00,weatherlink.com 1.10,2013-04-13 22:35:00,
2013-04-13 18:50:00,77.4,33.0,29.89,WNW,301,5.0,9.0,20,0.00,,,0.00,weatherlink.com 1.10,2013-04-13 22:50:00,
2013-04-13 19:05:00,76.0,32.0,29.90,SW,234,3.0,9.0,20,0.00,,,0.00,weatherlink.com 1.10,2013-04-13 23:05:00,
2013-04-13 19:20:00,75.1,33.0,29.90,NNW,329,1.0,8.0,21,0.00,,,0.00,weatherlink.com 1.10,2013-04-13 23:20:00,
2013-04-13 19:35:00,73.7,31.0,29.90,NNW,337,3.0,9.0,21,0.00,,,0.00,weatherlink.com 1.10,2013-04-13 23:35:00,
2013-04-13 19:50:00,72.4,32.0,29.91,NW,308,3.0,5.0,23,0.00,,,0.00,weatherlink.com 1.10,2013-04-13 23:50:00,
2013-04-13 20:05:00,71.2,34.0,29.92,NNW,333,1.0,3.0,25,0.00,,,0.00,weatherlink.com 1.10,2013-04-14 00:05:00,
2013-04-13 20:20:00,70.1,35.0,29.93,NE,42,2.0,3.0,28,0.00,,,0.00,weatherlink.com 1.10,2013-04-14 00:20:00,
2013-04-13 20:35:00,67.0,35.0,29.93,NE,41,1.0,2.0,31,0.00,,,0.00,weatherlink.com 1.10,2013-04-14 00:35:00,
2013-04-13 20:50:00,65.1,37.0,29.94,NNE,28,0.0,5.0,36,0.00,,,0.00,weatherlink.com 1.10,2013-04-14 00:50:00,
2013-04-13 21:05:00,64.6,37.0,29.95,North,360,0.0,4.0,36,0.00,,,0.00,weatherlink.com 1.10,2013-04-14 01:05:00,
2013-04-13 21:20:00,64.6,36.0,29.96,North,5,0.0,4.0,35,0.00,,,0.00,weatherlink.com 1.10,2013-04-14 01:20:00,
2013-04-13 21:35:00,63.6,37.0,29.97,East,89,1.0,3.0,37,0.00,,,0.00,weatherlink.com 1.10,2013-04-14 01:35:00,
2013-04-13 21:50:00,63.1,37.0,29.98,ESE,111,0.0,1.0,38,0.00,,,0.00,weatherlink.com 1.10,2013-04-14 01:50:00,
2013-04-13 22:05:00,62.0,38.0,29.98,ESE,111,0.0,1.0,41,0.00,,,0.00,weatherlink.com 1.10,2013-04-14 02:05:00,
2013-04-13 22:20:00,60.4,38.0,29.99,ESE,111,0.0,1.0,44,0.00,,,0.00,weatherlink.com 1.10,2013-04-14 02:20:00,
2013-04-13 22:35:00,59.1,39.0,30.00,ESE,111,1.0,1.0,47,0.00,,,0.00,weatherlink.com 1.10,2013-04-14 02:35:00,
2013-04-13 22:50:00,58.0,39.0,30.00,ESE,111,2.0,2.0,50,0.00,,,0.00,weatherlink.com 1.10,2013-04-14 02:50:00,
2013-04-13 23:05:00,57.2,38.0,30.00,ESE,111,0.0,2.0,49,0.00,,,0.00,weatherlink.com 1.10,2013-04-14 03:05:00,
2013-04-13 23:20:00,56.4,39.0,30.00,ESE,111,1.0,2.0,53,0.00,,,0.00,weatherlink.com 1.10,2013-04-14 03:20:00,
2013-04-13 23:36:00,56.1,38.0,30.00,ESE,111,0.0,2.0,52,0.00,,,0.00,weatherlink.com 1.10,2013-04-14 03:36:00,
2013-04-13 23:51:00,55.9,39.0,30.00,SE,125,0.0,2.0,53,0.00,,,0.00,weatherlink.com 1.10,2013-04-14 03:51:00,